Tracking 23752 objects as of 23-Oct-2021
HD Live streaming from Space Station
objects crossing your sky now

SL-8 DEB

Track SL-8 DEB now!
10-day predictions


NORAD ID: 21174
Int'l Code: 1991-009AM
Perigee: 1,466.5 km
Apogee: 1,916.1 km
Inclination: 74.1 °
Period: 120.1 minutes
Semi major axis: 8062 km
RCS: 0.0735 m2 (small)
Launch date: February 12, 1991
Source: Commonwealth of Independent States (former USSR) (CIS)
Launch site: PLESETSK MISSILE AND SPACE COMPLEX (PKMTR)

Note: This is SATELLITE DEBRIS
aabbcc
Your satellite tracking list
Your tracking list is empty




NASA's NSSDC Master Catalog

Two Line Element Set (TLE):
1 21174U 91009AM  21295.72021605  .00000134  00000-0  16397-2 0  9992
2 21174  74.0933  21.2863 0278804  29.6705  92.8985 11.99262750340867
Source of the keplerian elements: AFSPC